KE9LZ-9 Weather Reports


time (UTC)temp
C
wind
direction
speed
KPH
gust
KPH
rain 1hr
cm
rain 24hr
cm
rain mn
cm
humidity
%
barometer
mb
20260905034004 18 356 1.6 3.2 0.00 0.15 0.15 99 1016.6
20260905033004 18 319 0.0 3.2 0.00 0.15 0.15 99 1016.4
20260905032003 18 5 1.6 3.2 0.00 0.15 0.15 99 1016.4
20260905031004 18 11 1.6 3.2 0.00 0.15 0.15 99 1016.5
20260905030004 18 0 1.6 4.8 0.00 0.15 0.15 99 1016.2
20260905025004 18 11 1.6 3.2 0.00 0.15 0.15 99 1016.4
20260905024004 18 32 1.6 3.2 0.00 0.15 0.15 99 1016.3
20260905023003 18 42 1.6 3.2 0.00 0.15 0.15 99 1016.3
20260905022003 18 77 0.0 3.2 0.00 0.15 0.15 99 1016.1
20260905021004 18 15 1.6 3.2 0.00 0.15 0.15 99 1016.3
20260905020004 18 4 1.6 3.2 0.00 0.15 0.15 99 1016.2
20260905015003 18 7 1.6 3.2 0.00 0.15 0.15 99 1016.1
20260905014004 18 3 1.6 3.2 0.00 0.15 0.15 99 1016.3
20260905013003 18 8 1.6 3.2 0.00 0.15 0.15 99 1016.4
20260905011003 18 43 1.6 3.2 0.00 0.15 0.15 99 1016.3
20260905010004 18 15 1.6 3.2 0.00 0.15 0.15 99 1016.1
20260905005004 18 25 1.6 4.8 0.00 0.15 0.15 99 1015.8
20260905003004 18 19 1.6 3.2 0.00 0.15 0.15 99 1015.8
20260905002004 18 79 1.6 3.2 0.03 0.15 0.15 99 1015.9
20260905001003 18 31 1.6 3.2 0.05 0.15 0.15 99 1016.1
20260904234004 18 353 1.6 3.2 0.10 0.15 0.15 99 1015.9
20260904233004 18 17 1.6 3.2 0.08 0.15 0.15 99 1015.6
20260904232003 18 14 1.6 3.2 0.08 0.15 0.15 99 1015.6
20260904231004 18 340 1.6 3.2 0.03 0.10 0.10 99 1015.7
20260904225003 19 14 1.6 3.2 0.00 0.08 0.08 99 1015.3
20260904224003 19 36 0.0 3.2 0.00 0.08 0.08 99 1015.2
20260904223003 19 5 3.2 4.8 0.00 0.08 0.08 99 1015.2
20260904222004 19 48 1.6 3.2 0.00 0.08 0.08 99 1015.1
20260904221004 19 0 1.6 3.2 0.00 0.08 0.08 99 1014.9
20260904214005 20 9 1.6 4.8 0.00 0.08 0.08 99 1014.5
20260904213004 20 35 1.6 4.8 0.00 0.08 0.08 99 1014.4
20260904211003 20 24 1.6 3.2 0.00 0.08 0.08 99 1014.2
20260904210004 20 27 3.2 4.8 0.00 0.08 0.08 99 1014.4
20260904205004 20 17 1.6 4.8 0.00 0.08 0.08 99 1014.5
20260904203004 20 13 1.6 3.2 0.00 0.08 0.08 99 1014.7
20260904201004 20 80 1.6 4.8 0.00 0.08 0.08 99 1014.7
20260904200004 20 27 1.6 3.2 0.00 0.08 0.08 99 1014.9
20260904195004 20 14 1.6 3.2 0.00 0.08 0.08 99 1014.8
20260904194004 20 355 1.6 3.2 0.00 0.08 0.08 99 1014.8
20260904193004 20 9 1.6 3.2 0.00 0.08 0.08 99 1014.9
20260904192004 20 359 1.6 3.2 0.00 0.08 0.08 99 1014.9
20260904191004 21 13 0.0 3.2 0.00 0.08 0.08 99 1014.8
20260904190004 21 12 0.0 3.2 0.00 0.08 0.08 99 1014.7
20260904185004 21 13 0.0 3.2 0.00 0.08 0.08 99 1014.7
20260904184004 21 13 1.6 3.2 0.00 0.08 0.08 99 1014.7
20260904183004 22 350 0.0 3.2 0.00 0.08 0.08 98 1014.3
20260904182004 22 1 1.6 3.2 0.00 0.08 0.08 97 1014.4
20260904181004 22 357 1.6 3.2 0.00 0.08 0.08 97 1014.3
20260904180003 22 9 3.2 3.2 0.00 0.08 0.08 97 1014.4
20260904175003 22 187 0.0 3.2 0.00 0.08 0.08 97 1014.3
20260904174004 22 160 1.6 3.2 0.00 0.08 0.08 97 1014.5
20260904173004 21 0 1.6 3.2 0.00 0.08 0.08 98 1014.4
20260904172004 21 346 1.6 3.2 0.00 0.08 0.08 98 1014.3
20260904171004 21 345 1.6 3.2 0.00 0.08 0.08 98 1014.4
20260904170004 21 339 3.2 3.2 0.00 0.10 0.08 99 1014.4
20260904165003 21 351 3.2 4.8 0.00 0.10 0.08 99 1014.5
20260904164004 21 52 1.6 4.8 0.00 0.10 0.08 99 1014.7
20260904163004 21 4 1.6 4.8 0.00 0.10 0.08 99 1014.6
20260904162004 20 100 1.6 3.2 0.00 0.10 0.08 99 1014.7
20260904161004 20 347 3.2 3.2 0.00 0.10 0.08 99 1014.7
20260904160004 20 25 1.6 3.2 0.00 0.10 0.08 99 1014.6
20260904155003 19 79 1.6 3.2 0.00 0.10 0.08 99 1014.5
20260904154004 19 56 0.0 1.6 0.00 0.10 0.08 99 1014.5
20260904153004 19 73 1.6 3.2 0.00 0.10 0.08 99 1014.5
20260904152003 18 45 0.0 1.6 0.00 0.10 0.08 99 1014.6
20260904151004 18 351 1.6 3.2 0.00 0.10 0.08 99 1014.6
20260904145003 18 2 1.6 3.2 0.00 0.10 0.08 99 1014.4
20260904144003 18 12 1.6 3.2 0.03 0.10 0.08 99 1014.4
20260904143004 18 45 0.0 4.8 0.03 0.10 0.08 99 1014.5
20260904142004 17 3 1.6 3.2 0.03 0.10 0.08 99 1014.9
20260904141004 17 328 1.6 3.2 0.00 0.10 0.05 99 1015.0
20260904135004 17 357 3.2 4.8 0.00 0.10 0.05 99 1014.9
20260904133004 17 18 1.6 4.8 0.00 0.10 0.05 99 1015.1
20260904132004 17 50 1.6 4.8 0.00 0.10 0.05 99 1014.9
20260904131004 17 66 1.6 4.8 0.00 0.10 0.05 99 1014.9
20260904130004 17 22 1.6 3.2 0.00 0.10 0.05 99 1014.8
20260904125004 17 24 1.6 3.2 0.00 0.10 0.05 99 1014.6
20260904124003 17 348 0.0 4.8 0.00 0.10 0.05 99 1014.2
20260904123004 17 11 1.6 4.8 0.00 0.10 0.05 99 1014.1
20260904122004 17 7 1.6 4.8 0.00 0.10 0.05 99 1014.2
20260904121003 17 358 1.6 4.8 0.00 0.10 0.05 99 1014.4
20260904115004 17 9 1.6 4.8 0.00 0.10 0.05 99 1014.5
20260904114004 17 325 1.6 3.2 0.00 0.10 0.05 99 1014.3
20260904113004 17 356 1.6 3.2 0.00 0.10 0.05 99 1013.7
20260904112003 17 27 1.6 3.2 0.00 0.10 0.05 99 1013.6
20260904111004 17 321 0.0 3.2 0.00 0.10 0.05 99 1013.7
20260904110004 17 352 1.6 3.2 0.00 0.10 0.05 99 1013.9
20260904105004 17 26 1.6 4.8 0.00 0.10 0.05 99 1013.8
20260904104004 17 15 1.6 3.2 0.00 0.10 0.05 99 1013.7
20260904103004 17 39 1.6 3.2 0.00 0.10 0.05 99 1013.8
20260904101004 17 2 1.6 3.2 0.00 0.10 0.05 99 1014.2
20260904100004 17 13 1.6 4.8 0.00 0.10 0.05 99 1014.0
20260904095004 17 84 1.6 4.8 0.00 0.10 0.05 99 1014.3
20260904094004 17 40 3.2 4.8 0.00 0.10 0.05 99 1014.3
20260904093004 17 96 1.6 4.8 0.00 0.10 0.05 99 1014.6
20260904092004 16 23 1.6 4.8 0.00 0.10 0.05 99 1014.7
20260904091004 16 13 1.6 4.8 0.00 0.10 0.05 99 1014.4
20260904090004 17 39 1.6 4.8 0.00 0.10 0.05 99 1015.4
20260904083004 17 31 1.6 3.2 0.00 0.10 0.05 99 1014.7
20260904082004 17 23 1.6 3.2 0.00 0.10 0.05 99 1014.4
20260904081004 17 1 1.6 3.2 0.00 0.10 0.05 99 1014.1
20260904080004 17 6 1.6 3.2 0.00 0.10 0.05 99 1014.3
20260904075004 17 30 1.6 3.2 0.00 0.10 0.05 99 1014.4
20260904074004 17 344 1.6 3.2 0.00 0.10 0.05 99 1014.7
20260904073004 17 348 1.6 3.2 0.03 0.10 0.05 99 1014.5
20260904072004 17 288 1.6 3.2 0.03 0.10 0.05 99 1014.2
20260904070004 17 22 1.6 3.2 0.03 0.10 0.05 99 1014.1
20260904065004 17 5 1.6 3.2 0.03 0.10 0.05 99 1014.3
20260904064004 17 0 0.0 3.2 0.03 0.08 0.05 99 1014.3
20260904063003 17 350 1.6 3.2 0.03 0.05 0.03 99 1013.8
20260904062003 17 11 1.6 3.2 0.03 0.05 0.03 99 1013.5
20260904061004 17 19 0.0 4.8 0.03 0.05 0.03 99 1013.7
20260904055004 17 5 1.6 3.2 0.03 0.05 0.03 99 1014.8
20260904054004 17 53 1.6 3.2 0.00 0.05 0.00 99 1014.5
20260904053004 17 32 3.2 3.2 0.00 0.05 0.00 99 1014.7
20260904052003 17 28 1.6 3.2 0.00 0.05 0.00 99 1014.9
20260904051004 17 0 3.2 3.2 0.00 0.05 0.00 99 1014.7
20260904050004 17 13 1.6 3.2 0.00 0.05 0.00 99 1015.1
20260904045004 17 314 3.2 3.2 0.00 0.05 0.05 99 1015.0
20260904044004 17 23 1.6 3.2 0.00 0.05 0.05 99 1015.1
20260904043004 17 334 1.6 3.2 0.00 0.05 0.05 99 1015.3
20260904042004 17 339 1.6 1.6 0.00 0.05 0.05 99 1015.4
20260904041004 17 347 0.0 3.2 0.00 0.05 0.05 99 1015.4
20260904040004 17 315 0.0 3.2 0.00 0.05 0.05 99 1015.4
20260904035004 17 22 1.6 3.2 0.00 0.05 0.05 99 1015.2